GFSSGP_925_spd_273.txt.gz
Wind_Speed
9 11 1 4 3 4 3 4 0 7 8 1 6 2 6 5 2 2 6 16 6 10 18 20 20 19 19 19 20 18 17 15 15 15 16 17 17 18 20 21 23 23 20 19 14 14 13 16 16
9 1 2 2 3 0 4 3 2 1 4 7 1 3 6 2 2 3 5 16 6 10 17 18 20 19 18 20 20 20 17 16 15 14 15 17 18 19 20 22 25 25 23 19 19 17 16 16 16
3 2 3 4 3 3 4 4 5 2 3 6 3 5 2 2 5 5 12 7 2 13 16 17 19 19 18 20 20 21 18 17 17 15 15 15 18 21 23 21 25 24 24 22 20 18 17 17 18
1 4 4 4 4 4 4 4 2 3 2 6 1 4 2 0 3 7 11 3 3 13 17 16 14 17 19 20 19 21 20 19 17 18 18 17 19 20 21 25 24 23 23 22 21 20 20 19 19
3 3 3 2 3 4 4 6 5 3 2 2 4 4 3 2 3 8 10 7 4 11 15 18 15 16 19 20 22 22 22 21 20 21 21 22 20 21 22 25 23 20 19 19 18 20 19 22 25
3 3 2 3 4 3 2 4 5 3 4 6 4 1 4 3 8 10 11 11 4 9 14 19 19 17 18 21 21 21 23 22 22 23 22 24 23 22 24 23 21 21 20 19 19 20 20 25 25
5 3 4 3 3 2 2 8 2 3 3 1 3 1 1 4 10 9 10 11 6 4 7 11 17 19 18 21 21 21 22 22 24 24 24 25 26 26 25 25 23 22 21 22 22 22 23 28 23
4 3 3 3 4 3 2 6 1 4 4 7 2 0 1 2 5 6 7 9 11 11 9 9 6 11 19 19 22 22 22 23 24 24 23 26 26 27 27 27 25 24 23 23 24 23 26 27 25
3 3 2 3 5 2 1 3 3 4 3 5 4 1 1 4 5 4 6 6 6 8 10 12 13 11 11 14 21 24 24 25 26 25 25 26 29 28 28 28 27 27 26 26 26 25 26 27 27
4 3 7 2 1 2 1 1 2 4 5 3 4 3 3 8 6 4 4 3 4 8 11 12 11 11 12 12 12 19 29 29 29 28 27 27 30 30 30 30 27 28 28 28 27 28 29 28 29
3 4 3 2 1 1 2 3 2 1 5 7 4 6 6 6 9 5 5 2 2 5 8 10 11 12 13 13 12 13 16 19 32 32 34 32 32 32 34 33 31 31 31 30 29 31 29 31 31
2 1 1 1 1 2 3 2 3 5 7 3 7 8 6 8 7 8 7 6 4 3 7 7 9 10 11 12 12 14 16 16 16 28 38 37 36 38 38 39 37 36 37 34 33 34 31 35 33
2 2 3 2 5 4 3 6 4 9 9 7 7 4 6 8 11 9 10 6 5 4 4 5 7 10 11 12 13 13 14 17 19 20 19 29 35 37 41 41 38 41 41 37 38 37 33 37 35
1 2 4 3 4 2 3 5 3 7 4 7 6 10 8 8 11 12 9 11 7 4 4 6 9 11 12 14 15 16 18 18 17 17 18 18 21 32 32 33 37 41 40 41 41 40 38 37 37
1 1 1 6 4 2 4 1 7 4 2 7 10 9 9 8 16 16 15 13 10 8 7 9 11 12 13 15 18 21 22 22 22 20 17 17 20 20 29 33 37 41 39 42 42 41 39 40 38
4 5 3 2 6 3 6 9 6 3 3 13 7 8 7 8 9 9 10 12 9 9 8 10 11 14 18 21 23 25 27 27 28 27 25 21 20 23 26 35 39 38 39 41 42 40 38 39 37
7 1 2 9 4 4 2 8 5 5 9 14 11 8 7 7 3 6 6 5 6 9 13 16 20 26 29 31 32 32 32 32 33 35 33 30 25 22 25 29 38 44 39 40 41 37 38 33 32
2 2 3 5 3 5 7 18 15 10 6 10 9 8 6 6 6 9 11 14 17 22 24 29 32 31 31 29 26 27 31 34 34 35 36 34 26 24 29 31 34 37 42 37 38 37 36 35 35
4 1 4 5 3 6 4 12 18 13 7 9 7 4 6 6 1 8 18 23 27 29 29 29 30 29 25 27 29 28 25 28 30 30 30 30 32 33 28 33 29 37 29 46 47 41 36 30 33
2 2 5 5 2 3 7 18 13 7 5 2 5 5 6 3 7 10 20 23 25 26 30 31 31 28 26 26 26 26 28 33 34 33 34 36 35 35 32 33 35 33 35 31 46 43 34 27 43
3 4 1 3 6 3 7 7 3 2 2 3 4 4 2 2 7 7 14 21 24 25 27 29 28 29 29 28 29 30 31 32 30 29 29 29 31 34 35 34 33 31 32 35 28 51 46 33 36
3 4 1 4 3 3 5 4 5 3 4 4 5 3 4 8 7 7 10 18 22 23 28 29 30 31 27 25 27 27 27 27 28 31 31 31 30 31 31 30 30 30 26 26 36 36 53 44 35
2 2 1 1 1 3 1 2 7 2 5 8 7 5 6 7 7 9 11 20 21 23 27 28 29 29 29 27 26 27 28 29 29 28 30 29 30 32 32 33 34 32 29 29 32 31 50 52 43
2 2 4 3 2 3 3 3 6 5 6 3 3 4 7 8 9 8 17 19 23 26 28 28 28 29 27 28 29 29 32 32 31 30 30 30 29 31 33 33 33 32 29 30 32 33 47 53 51
4 4 4 5 4 5 1 1 10 7 6 4 7 5 8 8 8 9 13 17 22 27 27 27 26 29 30 30 30 30 31 32 34 34 31 29 28 27 25 29 30 31 30 29 29 27 36 46 52
3 4 5 5 2 5 4 6 6 5 4 6 3 5 8 9 7 8 11 19 21 26 27 28 28 30 31 32 32 31 32 32 33 32 32 31 30 29 31 31 31 31 31 28 26 33 37 38 49
2 3 3 6 1 3 3 7 11 6 7 6 3 6 8 11 10 12 15 18 22 24 26 27 28 30 31 32 32 32 33 34 35 35 32 32 32 30 30 32 32 32 33 31 23 31 30 35 39
4 4 3 3 1 5 5 6 6 5 4 6 5 9 11 9 10 11 12 18 22 24 27 27 28 29 32 31 30 31 32 33 34 31 29 30 28 29 30 30 30 30 31 30 29 28 34 32 32
2 1 4 3 3 4 3 7 7 7 5 7 6 7 8 9 10 11 11 18 21 24 26 27 28 30 30 29 30 30 30 30 25 26 28 28 28 29 29 28 28 29 31 32 29 29 32 35 35
3 5 6 4 5 2 3 8 2 7 5 5 6 7 7 6 8 9 10 17 20 23 26 26 28 28 28 29 28 28 27 26 21 23 27 28 27 27 31 31 29 26 24 32 31 31 34 37 36

GFSSGP_925_spd_276.txt.gz
Wind_Speed
7 5 3 4 3 4 2 4 2 5 1 1 5 3 5 2 2 2 8 10 11 6 13 17 18 17 17 16 16 17 17 16 14 13 13 13 14 15 16 16 17 16 16 18 18 20 20 19 19
6 2 4 3 4 2 4 3 3 3 3 6 3 1 5 2 1 3 7 18 12 4 14 16 18 17 17 17 18 18 17 17 15 15 14 14 13 15 15 16 17 18 17 18 19 19 19 22 20
2 4 3 3 3 4 4 4 4 3 5 3 2 5 2 1 1 3 11 15 8 4 12 11 17 17 16 17 18 20 18 18 16 16 16 17 17 16 17 18 19 21 21 18 17 16 18 19 20
2 5 4 3 4 5 5 0 1 6 1 5 1 4 1 2 3 8 11 10 7 3 9 10 11 14 17 17 19 20 20 19 17 17 17 17 19 21 21 22 22 21 20 21 18 18 19 19 20
4 3 2 2 4 4 4 1 2 2 1 4 1 0 2 4 8 10 13 11 4 4 6 12 12 13 14 17 19 19 20 20 19 17 19 20 20 22 25 22 24 22 22 21 21 18 17 19 19
3 3 2 3 4 4 2 4 2 0 2 1 4 1 2 4 10 13 13 13 6 3 5 10 15 17 17 18 18 20 21 21 21 20 21 22 22 24 23 24 25 22 21 20 21 19 19 19 20
5 3 3 2 3 2 1 6 2 2 2 1 1 0 1 3 9 10 11 12 12 8 5 4 5 12 17 17 18 21 22 23 25 24 24 24 24 24 25 25 26 25 22 20 18 19 19 18 24
4 3 1 3 3 3 3 4 1 4 2 8 2 1 1 2 7 7 6 6 8 9 9 10 9 8 9 12 17 18 21 25 25 26 27 26 27 25 26 27 28 26 24 22 20 21 19 20 28
3 3 1 3 4 2 4 5 2 2 2 5 4 1 2 4 6 6 6 6 6 7 11 10 10 10 10 10 10 12 15 22 26 28 30 28 28 30 28 27 28 27 26 24 24 24 24 22 25
4 3 6 1 1 1 2 3 4 6 6 4 4 3 4 9 9 7 6 7 7 9 11 12 11 11 11 11 11 11 11 13 20 30 32 32 30 32 30 30 29 28 28 26 26 25 26 26 28
3 5 3 1 1 2 1 2 1 1 4 7 5 4 7 8 8 6 6 5 5 7 9 11 11 11 12 12 13 13 12 13 12 15 16 26 31 34 33 33 32 31 30 28 28 28 28 30 33
3 1 1 1 1 1 3 1 3 6 8 2 5 6 5 6 5 7 10 8 6 5 7 6 7 10 12 13 13 15 16 15 16 17 19 19 15 32 34 35 35 35 33 34 32 33 31 33 34
2 1 1 1 4 4 2 6 6 9 10 6 6 4 6 8 9 11 11 11 7 7 6 4 6 9 11 13 15 16 17 18 18 15 17 17 22 16 22 32 35 38 36 36 37 36 34 35 35
2 0 3 2 2 2 3 4 1 6 2 3 5 8 9 8 11 11 11 11 10 8 7 7 9 11 13 15 18 20 21 21 20 19 16 14 16 20 26 19 28 34 39 39 41 40 38 39 36
1 1 1 4 5 3 4 4 7 4 3 5 9 10 9 9 12 14 12 7 4 5 8 9 12 13 15 19 23 24 26 29 28 25 22 20 15 16 15 23 27 32 35 39 37 42 41 40 36
3 4 2 2 7 2 3 8 2 3 6 10 10 8 7 8 8 6 6 5 7 8 11 12 15 19 24 28 30 31 31 31 32 32 30 27 26 22 21 23 24 27 37 36 34 40 39 39 36
6 1 2 7 3 4 3 8 4 3 8 10 5 5 5 4 7 14 16 12 9 11 13 18 23 27 29 31 31 32 32 30 30 33 34 34 31 30 25 24 28 25 27 37 39 35 39 35 32
2 1 2 5 4 5 6 16 14 7 7 10 9 6 3 5 3 4 7 9 13 17 20 24 28 30 31 31 33 33 33 35 33 31 31 33 33 30 28 29 26 26 29 36 37 39 43 36 34
6 3 2 4 3 5 5 10 20 9 7 7 5 2 4 5 1 6 13 16 21 24 28 30 32 32 28 25 25 25 25 27 28 27 28 31 32 31 29 31 31 31 30 33 39 32 40 36 31
4 2 4 5 1 1 7 20 14 6 5 3 6 6 5 1 5 5 18 24 26 28 28 27 26 27 26 26 26 25 27 27 29 30 30 30 32 35 35 34 32 30 33 32 35 38 26 35 42
3 3 2 1 7 3 7 7 5 2 1 2 2 4 3 3 7 7 14 23 28 28 29 30 31 29 28 29 26 25 27 27 24 23 24 23 24 28 32 35 34 32 33 33 33 29 38 27 36
1 4 3 3 4 3 4 5 5 4 5 4 5 6 3 4 4 5 10 18 23 27 24 28 31 29 27 27 25 24 24 26 26 27 28 28 28 30 32 32 33 32 32 32 32 37 35 25 31
2 2 2 1 1 3 2 3 7 2 7 8 9 8 4 4 5 8 10 18 22 21 22 25 29 28 27 26 24 25 26 27 28 28 29 29 29 29 30 31 30 31 29 31 30 26 27 33 23
4 4 5 4 2 3 2 3 6 5 6 3 4 7 2 7 7 7 15 17 19 18 24 25 26 26 26 26 27 26 28 29 29 28 29 28 28 28 29 32 35 34 32 33 29 29 28 35 36
2 4 3 5 4 5 3 1 11 6 6 4 6 6 5 7 7 8 8 16 20 23 27 26 25 27 27 27 28 28 29 31 32 32 29 29 28 28 28 30 33 34 35 36 32 31 30 31 28
2 5 5 5 2 4 3 6 6 5 2 5 6 4 6 7 6 7 7 14 16 24 25 25 26 27 27 28 28 29 30 29 30 32 31 32 31 30 28 30 31 27 29 30 29 30 29 28 32
3 1 2 7 2 3 3 7 10 6 7 5 7 3 8 8 7 8 9 13 19 24 26 25 27 28 27 28 28 30 29 29 31 34 35 35 33 32 30 31 31 31 32 36 37 35 33 32 31
2 5 3 3 1 4 5 6 6 4 3 6 8 6 8 7 8 7 7 14 21 25 26 25 25 25 27 27 28 28 30 30 32 33 34 35 33 31 30 30 30 29 31 33 28 25 27 28 30
2 1 4 3 3 4 2 6 8 7 5 7 9 8 7 8 8 7 7 16 21 23 23 25 25 26 27 27 29 29 29 29 30 30 30 30 30 30 30 29 28 29 30 28 30 29 27 29 27
2 5 5 4 5 1 3 8 3 7 7 7 8 8 8 6 6 7 7 15 17 20 23 24 25 25 27 28 29 28 28 27 28 29 29 26 30 32 31 29 29 28 26 25 23 26 26 30 25

GFSSGP_925_spd_279.txt.gz
Wind_Speed
2 2 4 4 1 2 2 4 1 2 1 1 2 2 3 3 1 2 5 6 16 8 8 15 15 13 14 14 15 15 15 14 14 14 14 15 15 14 15 15 17 18 15 14 14 16 15 16 17
1 3 4 2 3 2 3 2 4 3 1 4 1 1 2 2 1 2 5 18 12 6 7 12 14 13 13 14 14 15 16 16 15 14 14 15 15 16 16 16 17 18 17 16 16 18 17 16 19
3 3 3 3 2 4 4 5 4 1 2 2 2 3 1 2 2 4 11 15 10 6 5 7 12 14 13 14 14 15 16 16 17 16 15 15 15 17 18 18 18 18 18 18 18 19 20 19 17
3 3 3 2 3 4 3 2 1 2 1 4 0 3 2 2 1 7 11 11 7 5 1 4 8 12 13 13 14 15 17 17 17 17 16 16 17 19 20 22 21 20 21 21 20 16 18 19 18
4 2 2 1 3 3 3 0 2 1 1 3 3 1 3 2 4 8 12 11 7 5 2 4 8 11 13 14 15 16 17 19 19 18 17 18 20 21 22 22 23 24 25 23 23 23 18 18 19
3 2 2 3 3 4 2 1 1 1 2 2 2 1 2 3 9 10 12 14 10 8 5 3 6 11 14 14 14 15 18 19 21 21 19 19 21 22 26 26 27 25 25 24 25 24 23 21 20
5 3 3 3 3 3 2 4 2 1 1 1 2 1 1 3 8 8 9 11 12 11 9 9 8 7 6 8 8 12 15 19 22 23 23 22 24 24 26 27 26 26 25 26 25 24 22 22 20
4 3 3 3 3 4 3 4 1 3 1 5 1 3 2 1 6 5 5 6 8 9 10 10 10 11 11 10 9 11 12 13 19 22 24 26 26 26 26 28 27 28 27 25 23 24 22 21 21
2 3 2 4 5 2 3 2 2 1 2 2 1 3 4 2 4 6 6 6 5 7 9 10 10 10 10 10 10 12 11 11 11 12 24 26 26 28 29 28 29 30 29 27 25 23 22 20 20
4 3 7 2 3 3 1 1 1 1 3 2 2 2 1 8 8 5 5 7 6 7 8 11 10 9 9 10 11 11 11 12 13 14 16 11 20 31 33 32 31 31 30 28 25 24 24 21 22
3 5 4 3 3 2 1 2 2 3 5 6 3 2 4 6 7 3 4 5 6 6 7 9 9 11 12 13 13 14 14 15 16 17 17 17 19 17 33 31 33 32 32 30 28 26 26 27 25
4 3 4 3 1 1 2 1 3 6 5 5 1 3 3 4 5 6 8 7 7 5 6 5 6 8 10 11 12 13 14 15 15 15 15 16 14 13 9 20 29 36 36 33 31 30 30 30 29
4 3 1 1 3 4 2 5 5 7 8 5 1 2 2 6 9 12 10 9 10 6 5 4 6 8 9 11 12 13 15 15 16 16 15 14 15 14 13 19 8 28 37 36 35 34 34 33 33
4 3 1 1 3 2 2 3 1 2 3 4 0 6 7 7 9 11 10 11 5 4 5 6 8 9 10 12 14 17 20 22 21 20 20 18 15 15 16 18 20 18 16 39 38 39 38 37 37
3 3 1 3 3 0 1 5 7 5 1 4 6 8 8 6 6 6 6 1 3 2 5 7 10 14 17 20 22 24 25 25 27 27 25 23 22 22 20 19 22 22 28 15 37 35 38 35 37
3 4 1 0 5 0 1 7 2 5 4 6 8 7 6 6 2 5 10 11 9 5 7 9 13 18 22 24 26 27 29 30 30 29 28 28 27 27 27 27 26 27 26 25 20 36 35 32 34
4 2 3 3 3 3 2 6 4 5 4 11 6 6 5 4 6 10 11 9 8 10 12 17 20 23 27 30 31 32 32 33 33 33 32 32 32 31 30 30 28 28 30 29 35 26 32 33 33
5 3 3 4 2 2 5 14 12 9 5 13 5 5 5 6 5 6 8 7 10 13 17 20 23 27 30 30 30 28 24 25 25 26 28 28 26 25 28 30 30 26 30 30 28 35 37 32 35
6 3 2 2 1 4 4 9 19 11 7 9 6 7 7 7 4 1 6 8 13 17 21 22 23 25 23 22 23 21 22 23 21 21 22 22 24 24 25 26 26 28 27 28 31 30 31 38 36
3 2 3 3 0 1 5 20 10 4 4 5 7 7 7 5 1 3 10 13 17 20 22 23 24 27 28 24 24 22 23 22 23 26 26 24 23 24 26 27 27 27 28 28 30 29 28 30 39
2 2 1 2 5 1 6 7 5 2 2 2 2 4 4 4 2 4 10 14 19 23 26 25 30 28 26 25 24 23 21 21 20 20 20 21 20 21 22 23 26 28 29 31 30 31 29 28 33
2 3 3 3 3 2 4 4 5 3 5 3 6 6 6 2 2 3 7 17 21 23 22 25 31 28 25 25 23 22 23 23 22 23 24 24 23 24 25 27 29 29 29 31 31 32 34 27 27
3 3 3 1 2 2 3 3 7 3 5 8 9 8 7 4 4 5 6 13 19 20 20 26 27 26 25 23 22 23 24 23 25 26 25 25 25 24 25 27 28 29 29 32 33 31 32 32 30
6 4 4 3 0 3 1 3 6 4 5 3 3 8 8 4 5 5 11 16 17 17 21 23 24 23 24 23 24 23 25 27 27 27 26 27 26 25 25 26 27 30 32 32 30 26 34 34 34
2 4 3 5 4 4 2 1 10 5 5 4 5 8 8 3 6 6 7 11 16 19 22 23 23 25 24 23 24 24 25 26 28 28 26 26 26 24 25 26 28 28 32 33 32 32 30 26 27
3 5 5 6 2 4 2 6 5 5 1 5 5 5 4 5 5 6 7 9 13 19 22 21 22 25 25 24 25 25 25 26 27 27 27 28 28 28 26 27 30 31 30 33 33 33 35 31 30
4 2 4 7 1 3 2 7 10 4 8 7 7 6 7 6 5 6 6 10 14 17 19 23 22 24 24 24 25 26 26 26 28 31 30 31 31 31 30 31 32 32 31 33 27 24 25 33 32
2 5 3 2 1 4 4 6 5 4 3 4 8 10 9 5 6 5 4 9 14 18 22 21 20 21 24 25 24 25 27 28 29 30 31 31 33 32 35 35 32 31 31 31 30 31 32 28 29
2 0 4 3 3 5 1 6 7 8 7 7 8 9 9 6 7 5 6 13 15 19 20 20 20 22 24 23 24 26 27 29 29 28 30 30 32 31 32 31 31 31 31 31 31 31 25 22 26
1 4 5 4 5 1 2 7 3 7 6 5 9 8 7 6 6 4 6 11 14 15 18 21 22 23 24 25 25 26 27 29 28 28 31 31 32 32 31 30 31 30 29 28 28 27 25 26 26

GFSSGP_925_spd_282.txt.gz
Wind_Speed
2 1 3 5 5 5 11 8 1 5 4 1 0 4 3 6 4 3 3 10 12 6 3 10 11 10 9 10 11 12 13 12 12 12 12 13 12 13 13 14 14 14 12 11 13 14 15 16 16
2 2 2 1 6 9 8 7 9 4 2 2 0 2 1 5 4 3 2 15 11 6 3 6 11 9 9 10 10 11 12 12 13 13 14 14 13 14 15 16 16 17 16 13 12 15 17 18 18
3 2 3 3 7 10 6 9 6 5 2 4 3 3 3 3 4 3 9 12 7 6 4 1 6 9 9 10 11 12 13 14 14 14 14 14 15 16 16 17 18 19 19 18 17 17 20 19 20
5 5 2 6 9 9 6 4 4 4 3 2 2 6 4 5 2 7 11 9 6 8 5 3 3 6 7 9 11 12 14 15 15 17 17 16 17 18 18 19 20 21 20 20 20 21 23 20 19
3 2 6 8 11 6 7 1 1 4 2 2 1 5 4 4 2 7 10 10 10 7 6 5 2 4 7 10 10 12 14 15 18 18 18 19 19 20 20 21 22 23 22 22 23 24 21 20 18
4 2 6 10 10 7 4 2 3 5 3 3 3 5 5 5 4 6 9 11 11 10 9 6 5 5 6 7 10 12 13 14 17 20 21 21 20 20 21 23 24 25 24 25 25 23 22 22 20
7 6 9 8 4 8 5 1 5 4 4 3 1 3 5 7 4 3 5 7 9 10 10 10 9 8 7 6 5 7 10 10 12 17 20 22 22 21 23 23 25 24 26 26 26 26 24 24 23
4 4 5 6 7 5 3 3 2 4 4 1 1 3 4 6 2 2 3 4 6 8 9 9 9 8 7 8 9 7 5 6 10 11 15 19 21 22 23 25 26 28 29 28 28 29 26 25 24
2 6 7 5 6 2 3 5 3 1 3 2 2 1 5 4 3 2 1 2 3 6 8 9 9 10 8 8 8 7 8 10 9 8 9 12 15 21 24 23 26 28 30 30 31 31 29 26 25
8 8 9 2 2 1 2 3 2 4 5 6 5 3 2 3 4 3 1 1 2 3 6 8 9 10 9 8 10 10 10 11 12 13 13 10 10 6 16 24 27 28 29 30 32 33 31 27 22
4 7 5 4 2 1 3 4 2 4 8 7 6 6 2 3 1 2 2 2 2 2 5 6 7 8 8 8 8 8 8 8 8 9 11 12 13 9 10 11 27 33 29 31 31 31 30 27 24
5 5 3 2 2 2 3 2 4 6 3 3 3 1 3 3 1 2 3 3 2 1 2 3 5 6 7 7 8 8 8 9 9 9 11 12 13 12 13 11 10 21 30 28 29 28 29 28 28
9 4 4 2 2 3 3 8 8 11 9 7 4 3 5 3 5 7 8 5 4 3 1 2 2 3 6 8 9 10 11 12 13 12 12 11 11 13 14 14 14 15 15 21 33 33 31 30 30
4 5 3 2 2 1 4 5 2 2 1 5 9 7 5 7 10 10 9 7 4 5 3 2 1 3 7 10 12 13 13 15 15 16 16 15 14 15 14 14 18 17 20 16 11 28 41 33 31
4 6 3 3 2 2 2 8 10 7 3 7 7 4 6 6 6 8 6 5 6 6 3 1 3 6 10 12 15 17 18 20 19 20 20 20 18 18 18 19 18 23 23 22 27 19 30 37 38
4 3 5 4 1 2 3 6 3 5 9 10 7 3 4 3 2 3 5 8 6 4 2 3 6 9 11 14 16 17 18 20 21 22 22 23 22 21 22 22 22 20 24 27 27 26 29 27 39
5 3 6 4 1 1 6 6 2 8 8 11 12 8 3 4 6 7 7 6 4 3 4 7 10 12 15 16 18 18 19 20 21 22 23 21 21 21 23 25 25 22 22 24 25 26 26 34 24
6 5 4 4 4 4 9 19 13 10 12 14 13 9 7 9 9 8 5 3 2 3 6 8 9 11 14 17 18 19 20 19 19 20 20 19 20 21 22 24 25 24 24 25 24 27 28 32 38
2 2 2 2 2 4 8 15 16 13 15 17 16 11 11 12 11 9 4 1 2 5 8 11 12 14 17 18 19 19 19 21 20 19 20 21 20 20 20 21 22 23 26 27 26 27 25 24 30
3 2 3 2 2 4 7 21 15 5 7 11 15 14 14 14 12 10 5 1 4 7 10 13 15 17 18 17 18 17 19 20 21 21 21 20 20 19 19 20 21 22 24 25 27 27 24 26 19
2 3 2 1 5 1 9 8 4 3 3 5 8 11 13 14 12 8 3 3 6 9 11 12 15 17 17 17 18 18 19 19 20 19 19 18 18 20 20 21 21 22 23 26 26 27 30 27 24
3 3 5 2 4 3 4 6 4 3 5 7 9 11 13 12 7 4 2 4 8 9 10 13 16 18 17 17 17 18 20 21 21 23 22 21 20 21 21 22 23 24 25 27 27 27 29 29 28
2 3 4 2 1 3 3 3 4 2 7 12 12 12 13 11 7 3 3 5 8 9 12 14 17 18 18 18 17 18 20 21 22 23 23 23 22 21 22 22 23 24 26 27 27 28 29 31 30
12 4 3 2 0 3 4 3 5 4 2 4 8 13 13 12 7 3 3 5 8 10 12 15 16 18 18 17 17 18 20 22 23 23 25 25 23 23 23 22 24 25 26 26 28 29 31 33 32
2 3 1 2 2 3 3 3 10 4 3 2 4 8 13 11 7 4 5 6 7 10 13 15 16 19 18 18 18 18 20 22 24 23 22 25 25 24 25 24 26 27 28 27 27 29 31 33 28
7 2 3 5 3 1 2 6 3 1 1 4 5 3 9 11 6 5 4 5 8 10 13 15 18 19 18 18 19 19 19 20 22 22 24 26 26 27 26 28 30 32 31 30 29 29 31 32 36
5 6 2 6 1 1 2 6 12 7 12 11 9 7 11 12 6 5 5 5 7 9 12 15 16 18 18 18 19 20 21 21 24 25 25 27 27 27 28 29 32 33 34 33 31 31 30 32 31
2 5 3 1 4 5 3 5 4 6 9 8 9 13 12 12 10 4 4 6 5 7 11 13 14 16 18 18 18 20 22 22 23 24 26 26 28 29 30 30 32 33 36 36 31 32 30 31 23
5 4 0 0 2 3 2 4 5 7 7 7 7 8 9 12 12 5 5 5 6 7 10 13 14 16 17 18 19 21 22 23 22 23 24 26 27 29 31 31 31 33 34 33 31 31 29 29 29
2 4 7 3 6 1 1 7 3 6 5 4 6 7 8 9 10 6 5 5 6 7 10 11 13 14 16 18 19 21 22 22 22 23 24 25 29 30 32 32 31 31 31 30 31 29 27 31 29

GFSSGP_925_spd_285.txt.gz
Wind_Speed
3 4 5 7 6 6 12 14 7 6 7 2 0 5 6 12 8 3 5 11 8 6 1 4 7 6 5 5 5 7 8 7 7 7 9 9 9 8 8 8 8 8 10 9 10 12 14 15 14
4 4 7 5 7 11 10 11 12 11 6 4 3 3 4 5 9 9 5 12 7 6 6 5 6 5 4 5 5 7 8 9 9 9 9 10 10 11 10 10 11 11 11 10 11 11 12 14 14
4 7 7 4 11 12 7 5 8 6 1 7 4 2 2 4 8 4 7 7 7 8 8 5 4 3 3 4 7 8 9 10 11 12 12 13 12 13 13 13 14 15 15 13 12 12 14 15 16
8 6 5 9 15 9 8 5 7 8 4 2 2 5 6 5 3 5 6 11 9 10 10 6 3 2 3 4 5 8 10 11 12 13 14 14 15 16 16 17 17 18 19 18 17 17 17 19 19
9 6 9 11 14 10 5 2 5 10 6 6 4 7 5 5 7 7 8 8 9 7 6 6 3 2 3 4 6 7 8 10 12 14 16 17 17 18 17 18 18 20 22 20 21 22 23 22 21
7 7 10 11 14 8 8 8 7 10 7 5 5 5 6 7 6 6 8 10 10 10 10 10 9 7 5 3 2 5 7 9 11 13 16 18 19 20 19 19 20 21 21 23 23 23 23 24 23
14 9 13 14 8 7 10 6 10 11 9 6 3 6 7 8 6 5 6 8 9 9 10 9 9 10 11 10 6 3 4 6 7 9 12 16 19 20 20 20 21 22 23 24 23 25 23 22 24
12 9 15 10 11 11 6 6 2 7 8 4 1 4 7 11 5 4 4 4 6 7 7 7 7 7 7 7 7 8 8 6 6 6 7 7 12 18 21 21 21 23 24 24 24 27 26 24 24
9 8 11 14 7 5 6 9 5 1 5 5 4 2 8 8 5 5 4 4 2 3 5 6 6 7 6 7 8 9 9 9 9 10 10 9 9 9 14 22 23 22 21 23 26 29 30 28 26
12 11 12 3 4 2 4 6 5 6 10 10 8 6 6 5 4 5 6 5 3 2 3 4 6 6 6 5 6 6 7 8 9 10 11 11 11 11 11 13 19 24 28 24 25 28 31 32 30
12 15 13 3 4 3 4 5 4 7 10 11 11 10 7 5 5 6 5 4 2 3 3 4 5 5 5 4 4 3 4 4 5 6 8 10 10 12 12 12 13 14 25 31 30 27 30 36 34
10 14 7 2 2 3 6 5 7 11 12 3 2 3 5 7 6 6 6 5 5 4 4 3 3 3 3 2 2 3 4 5 6 7 9 9 9 11 11 14 14 16 14 21 31 31 32 35 39
16 7 8 7 4 5 5 11 10 13 11 7 7 5 7 7 7 6 6 4 5 6 6 4 2 1 2 4 4 6 7 8 9 11 11 12 13 14 13 15 17 18 17 18 18 28 31 32 39
4 16 8 5 8 5 6 11 2 6 10 12 13 12 10 9 9 7 8 9 8 6 7 4 2 1 4 6 8 9 10 12 13 14 15 16 17 18 18 17 17 19 22 21 19 22 21 26 35
1 5 12 11 8 4 4 12 18 15 7 9 10 11 10 9 9 11 11 10 10 9 6 4 1 3 5 7 9 11 13 15 17 19 20 20 20 21 21 22 21 20 19 24 26 25 24 26 27
5 5 7 8 9 5 5 10 7 7 10 11 12 11 6 8 8 7 6 9 9 9 6 2 1 4 7 9 11 13 15 16 18 19 21 21 21 22 23 23 23 22 21 20 21 25 29 28 29
8 6 13 6 8 3 11 8 7 7 10 12 14 13 7 5 7 8 9 10 8 7 4 2 3 5 8 10 13 14 16 17 18 18 20 20 20 20 21 23 23 23 23 22 23 23 22 23 29
6 8 6 9 7 9 10 19 11 10 12 14 15 16 9 8 10 11 11 9 7 5 1 2 4 6 10 12 13 15 16 17 17 19 20 19 19 18 19 20 21 22 23 23 23 24 24 24 22
6 6 7 3 4 3 14 19 16 12 15 17 17 16 12 11 12 13 11 9 5 4 2 4 7 9 11 12 14 16 16 20 19 19 19 19 20 19 19 19 20 20 23 24 24 25 25 24 20
9 10 10 2 4 3 9 18 19 17 18 17 19 19 15 14 14 14 13 9 5 3 3 5 7 10 11 12 14 15 18 19 20 22 20 19 19 19 19 18 20 21 22 22 23 23 24 24 21
9 10 5 3 4 8 10 10 7 5 6 7 11 15 16 17 16 14 12 10 6 4 4 6 8 10 11 13 14 16 18 19 19 19 18 18 18 19 19 20 21 22 22 22 21 21 23 22 22
9 2 2 2 3 4 2 5 7 9 8 8 8 12 15 16 15 13 11 10 6 3 4 7 9 11 12 13 15 17 19 20 20 21 20 20 19 20 20 20 21 22 23 23 23 22 23 23 21
2 4 2 1 3 4 6 4 4 4 10 11 12 13 14 15 13 12 10 7 4 2 3 6 9 11 12 14 15 17 19 20 21 21 21 21 20 19 19 20 21 23 23 23 24 24 24 24 24
10 5 3 1 2 4 4 5 8 6 6 10 13 14 14 15 13 10 8 5 4 3 5 7 10 12 14 16 17 17 20 21 22 22 24 23 21 20 20 20 21 22 24 25 25 25 26 27 27
5 4 1 3 3 3 3 4 10 3 4 7 12 13 14 14 13 11 9 7 4 3 5 8 10 13 13 15 17 17 20 21 22 22 21 23 23 22 22 22 23 23 24 26 27 27 27 28 28
10 3 3 5 4 2 2 6 4 2 4 7 5 5 9 13 11 10 8 5 2 3 6 9 10 13 14 16 18 18 19 20 20 21 23 25 25 25 26 26 27 27 28 29 30 30 30 28 29
6 7 3 4 2 2 4 5 10 10 7 7 8 9 9 11 12 11 7 5 2 3 5 8 10 12 14 16 18 18 19 20 22 23 23 24 25 25 25 26 28 28 29 29 31 33 33 31 31
3 3 3 2 5 6 4 4 7 6 11 12 12 11 10 10 11 10 7 5 4 5 5 6 8 11 14 15 16 17 19 20 21 22 23 24 25 24 25 26 27 29 28 29 31 30 33 33 32
4 3 4 2 2 4 2 4 4 6 7 9 10 9 9 8 9 10 7 6 6 5 3 5 7 11 13 15 16 17 19 19 20 21 22 24 25 25 26 26 28 29 29 29 31 33 34 32 30
11 5 8 4 6 2 2 5 2 1 6 9 8 4 5 4 4 7 7 8 7 5 3 4 7 10 13 15 16 17 18 19 20 22 23 23 25 26 25 28 28 28 28 29 30 31 29 31 30

GFSSGP_925_spd_288.txt.gz
Wind_Speed
5 4 6 9 4 4 9 11 10 5 3 4 4 4 11 10 4 4 10 8 8 6 5 6 6 6 5 3 3 3 3 2 3 3 3 3 3 3 3 3 2 3 3 3 3 7 9 12 13
5 8 8 4 5 7 8 8 8 3 10 9 4 5 3 5 10 6 4 9 9 14 12 9 8 6 4 3 2 2 2 3 2 2 3 4 5 5 6 6 6 6 6 6 6 6 8 11 10
7 8 4 4 6 10 9 7 8 3 10 4 4 2 4 5 7 5 7 9 11 15 12 10 8 6 4 3 1 1 2 3 4 6 6 7 7 8 9 9 9 10 9 8 8 10 10 12 13
6 5 4 5 12 12 4 3 10 6 5 2 4 10 5 9 4 6 8 9 9 11 10 10 8 5 4 3 1 2 3 4 6 7 8 9 10 11 12 13 13 13 14 14 12 12 13 14 16
10 4 6 8 13 15 3 6 5 5 8 7 3 7 6 8 11 12 12 9 10 9 9 10 7 6 4 2 1 1 2 4 6 8 10 11 12 13 13 14 14 15 15 17 18 17 18 17 18
4 4 6 8 15 16 8 6 5 7 4 7 1 7 5 13 12 10 13 14 13 13 13 12 11 9 7 4 3 2 0 1 4 6 8 11 13 14 15 15 15 16 16 18 18 18 19 19 20
10 7 9 13 13 5 3 7 3 6 8 4 4 3 6 8 12 10 13 13 12 11 11 11 10 10 10 10 9 6 4 3 3 3 4 6 10 13 15 17 17 17 17 18 20 20 19 21 20
6 8 14 11 11 9 4 7 4 6 2 2 3 1 6 12 13 10 10 12 11 10 9 8 8 7 7 7 8 7 8 8 8 7 6 6 7 9 12 15 18 20 18 19 19 19 18 21 21
9 7 10 12 13 3 4 4 4 4 2 1 4 5 9 16 12 12 10 10 11 10 8 7 6 7 8 7 9 8 9 8 8 8 8 8 8 8 9 10 15 20 20 19 18 19 19 22 24
6 8 10 6 7 5 6 2 5 4 7 5 6 9 11 12 10 10 10 11 10 13 9 7 6 7 8 5 5 6 5 6 8 8 8 8 8 9 10 10 11 13 18 23 25 23 23 22 23
7 12 10 4 6 7 6 1 1 2 6 7 11 13 10 9 8 6 6 4 9 11 10 6 7 6 6 4 5 5 5 5 6 7 11 11 11 13 13 14 14 13 14 16 23 29 29 29 28
13 12 17 4 7 3 4 6 4 7 6 5 8 8 9 7 6 8 8 11 9 8 10 8 6 5 5 5 3 4 4 8 7 10 12 14 15 15 18 20 21 20 18 16 18 21 30 32 33
17 11 4 4 7 4 7 6 6 9 9 8 7 4 4 6 8 7 5 6 7 8 9 9 7 5 3 3 1 2 4 6 9 13 12 14 17 19 20 21 23 26 25 23 21 20 22 29 32
5 7 10 3 2 5 3 6 5 7 11 9 10 8 8 8 8 9 8 7 11 10 11 9 6 4 1 0 4 6 7 10 13 15 17 18 19 22 22 22 23 24 25 28 27 24 22 25 26
4 4 5 4 6 3 2 8 15 11 4 5 6 7 9 9 11 9 9 13 13 12 12 10 7 3 2 3 6 10 11 14 18 19 20 20 18 20 22 23 24 24 24 25 26 29 28 27 27
4 3 3 4 12 5 5 8 3 11 10 9 9 8 8 8 8 9 10 8 8 14 10 7 4 2 4 6 10 13 15 17 20 22 22 22 22 21 21 22 23 23 25 25 26 25 27 29 29
5 4 8 3 6 5 9 7 5 6 5 8 9 9 8 7 6 8 9 12 12 13 11 7 3 2 6 9 12 13 16 18 20 19 17 18 20 21 22 22 22 22 24 25 25 25 24 27 27
5 5 5 8 7 4 6 17 11 8 8 9 9 9 9 9 9 12 13 14 12 10 8 5 2 2 7 10 12 15 17 16 16 20 21 18 19 19 20 21 20 21 23 24 24 25 24 25 27
4 4 5 6 3 3 10 15 13 10 11 10 10 9 10 9 10 17 15 14 12 10 7 4 1 3 7 10 14 14 16 20 22 20 21 22 23 23 22 23 21 21 22 22 22 23 25 25 24
2 4 7 2 6 2 6 13 15 12 11 15 14 10 9 9 10 12 15 15 11 10 6 3 2 4 7 8 12 13 18 17 23 23 22 21 19 18 18 19 20 20 21 21 21 21 22 22 21
4 7 5 2 4 7 6 8 6 3 3 1 1 7 10 10 13 10 12 15 13 10 6 3 2 5 7 9 12 14 17 18 17 18 19 21 22 22 22 22 22 23 22 21 21 21 21 19 20
4 1 3 3 1 3 4 5 5 6 7 6 6 7 8 9 11 10 10 14 13 8 5 4 3 5 6 9 11 13 15 17 19 22 22 23 23 22 21 21 22 23 22 22 22 20 21 22 18
2 2 2 1 3 3 4 1 7 4 7 8 9 8 9 10 11 10 9 16 11 8 7 3 3 4 7 9 10 13 16 18 21 22 23 23 23 22 21 21 21 21 20 21 21 21 21 22 21
7 4 2 1 1 1 9 6 4 5 5 7 9 7 8 9 9 9 14 13 9 9 5 5 3 4 7 10 11 12 16 19 21 22 23 22 21 21 21 21 21 21 22 23 23 23 23 23 23
4 3 1 2 1 5 3 0 8 3 0 6 10 10 10 9 9 9 9 9 12 10 7 5 4 4 8 10 12 14 17 18 20 21 21 22 23 23 23 22 23 23 24 23 23 24 25 26 25
7 4 3 7 4 3 3 6 6 4 7 8 8 10 9 10 9 9 9 13 12 9 7 5 3 5 8 10 12 14 15 17 19 21 22 23 24 25 24 25 25 25 24 25 26 26 27 27 28
5 4 1 4 1 3 5 7 5 6 4 6 6 4 7 9 9 10 9 12 11 10 8 6 3 3 6 9 11 13 15 18 21 23 23 23 24 24 23 24 26 26 26 27 27 28 28 29 30
1 3 3 2 3 4 4 4 6 8 9 9 9 9 8 7 9 9 8 14 12 10 8 5 3 4 7 9 10 12 16 18 20 23 24 23 24 24 24 26 26 26 27 28 28 29 28 29 32
3 2 2 1 2 4 1 6 4 8 11 13 11 9 9 9 8 8 8 15 13 11 8 5 3 5 7 9 11 14 17 19 21 23 22 23 23 24 25 25 26 27 28 28 28 30 31 31 30
3 6 6 4 5 3 2 6 2 4 7 9 8 8 6 8 7 7 8 16 14 11 9 6 3 4 5 7 10 13 16 19 20 22 22 23 23 23 25 26 27 26 27 28 28 30 30 30 29

GFSSGP_925_spd_291.txt.gz
Wind_Speed
7 4 7 3 3 3 4 7 6 10 1 4 3 9 10 5 3 5 5 5 7 13 12 12 12 11 9 8 7 6 7 6 6 5 4 4 3 2 2 2 2 2 1 0 1 2 6 9 9
7 5 3 0 3 1 5 8 11 4 5 7 6 7 5 3 5 6 5 10 17 18 14 13 12 11 9 7 7 6 5 4 4 3 3 2 1 1 1 1 2 2 2 2 2 2 4 7 8
7 3 2 4 4 6 5 4 2 2 7 5 4 6 4 4 3 4 11 12 16 16 14 13 11 10 9 7 6 5 5 4 2 1 1 2 3 3 4 4 4 6 6 6 5 5 6 7 10
2 3 3 2 7 8 7 6 2 4 4 3 4 8 4 1 4 10 12 13 13 14 13 12 11 9 8 7 5 4 4 3 3 3 3 4 5 6 7 7 8 8 9 9 9 9 10 10 12
3 0 2 3 8 10 8 9 3 3 7 5 4 6 5 3 17 14 14 14 13 14 13 12 10 8 7 6 5 5 4 4 3 4 5 6 7 8 9 9 10 10 10 10 11 12 14 14 13
1 2 2 7 12 10 9 9 7 4 2 2 5 6 5 13 18 18 18 17 15 16 15 14 11 9 8 7 7 5 4 2 2 2 3 5 6 8 10 11 12 12 13 13 13 15 15 15 17
3 1 5 6 10 7 6 7 7 4 2 6 3 5 5 5 15 21 19 15 15 14 13 12 12 12 12 11 9 7 6 4 2 2 3 3 3 6 10 12 14 14 15 15 16 17 17 17 18
4 2 3 4 7 9 2 2 7 4 2 2 3 6 6 8 17 20 16 15 14 13 12 11 9 8 9 9 9 8 8 8 8 7 6 6 5 5 5 7 11 15 17 18 16 18 18 18 18
3 2 4 5 7 7 3 3 4 4 6 3 4 4 8 26 20 18 22 19 18 14 10 8 9 9 8 9 10 10 10 9 8 8 8 7 7 8 9 9 9 10 12 18 20 19 18 20 21
5 5 7 5 3 1 1 5 2 2 3 3 5 6 19 22 20 18 17 19 19 18 14 7 9 11 10 8 8 7 6 6 6 6 8 8 8 9 10 12 13 13 14 14 17 21 24 23 24
5 5 9 3 1 3 2 2 1 4 3 5 9 11 9 10 13 14 14 18 22 20 15 8 9 9 7 8 7 5 4 4 3 5 9 9 10 12 14 15 17 18 17 17 17 18 19 23 28
3 6 12 4 0 1 2 5 4 4 6 5 4 14 9 9 9 11 10 19 22 20 15 10 9 9 9 8 6 4 1 2 4 7 10 11 15 17 17 19 21 23 23 23 21 20 20 23 24
10 7 5 5 4 1 2 3 4 6 9 4 9 9 9 9 10 14 13 17 19 20 18 15 11 9 9 7 4 3 3 5 8 11 12 14 16 18 19 22 22 23 23 25 26 24 24 23 24
1 3 7 4 6 3 3 4 1 7 12 8 8 10 9 9 11 13 17 17 18 17 20 18 15 11 6 5 3 3 5 8 11 15 17 18 19 20 21 22 22 23 23 23 23 27 28 27 26
2 2 6 4 5 1 5 8 13 12 6 9 11 9 9 10 14 15 17 15 15 16 21 17 14 9 6 5 4 5 8 11 15 18 19 21 21 22 22 23 25 25 24 26 27 25 26 29 29
3 2 1 4 10 4 7 10 8 8 11 9 9 9 9 9 11 17 16 14 15 22 22 18 12 7 6 4 5 7 10 13 16 18 19 19 21 23 25 26 27 26 26 24 24 25 27 27 27
2 4 7 5 9 6 7 7 4 5 8 9 8 8 8 8 7 14 14 15 19 22 19 13 8 6 5 5 7 9 11 13 15 15 17 20 21 20 21 22 25 25 25 24 24 24 25 26 25
6 4 5 6 7 4 6 14 10 8 4 10 9 9 9 9 8 15 15 17 21 19 16 13 8 5 5 7 8 10 11 11 13 16 17 19 20 20 21 22 23 24 26 26 25 25 24 25 27
1 3 3 1 2 4 9 12 15 8 8 10 9 9 10 10 8 22 22 20 19 17 14 11 8 6 7 8 9 9 12 16 14 18 17 17 17 17 18 19 20 19 20 21 21 23 25 24 21
11 4 5 0 2 2 2 13 13 9 11 15 14 10 11 8 9 13 25 21 18 16 14 11 7 6 7 8 8 8 13 12 17 14 13 15 17 20 22 22 24 24 24 24 23 23 21 19 17
7 6 4 5 3 4 3 9 6 6 11 7 13 12 10 15 16 13 15 23 19 18 16 11 7 6 7 8 9 10 12 13 12 18 19 19 19 20 21 22 22 22 22 21 20 21 20 18 19
5 3 5 4 3 4 3 5 6 4 6 6 8 10 11 13 14 15 14 21 22 18 16 10 7 5 6 7 8 9 10 12 15 18 19 21 22 22 21 21 20 19 19 19 18 17 17 18 16
5 2 4 2 2 3 2 2 8 3 7 9 9 9 9 11 16 14 12 23 24 22 16 10 6 5 6 7 7 8 10 12 16 18 20 22 21 20 19 19 19 20 20 18 19 21 20 19 19
6 5 5 4 3 1 8 7 5 5 6 3 5 8 9 11 14 13 19 24 24 18 13 9 6 6 7 7 7 8 10 13 16 18 20 21 21 19 18 18 19 19 20 20 20 21 21 22 22
1 5 2 3 2 6 4 4 9 6 6 7 11 9 9 11 12 11 11 14 21 18 13 10 8 7 6 6 7 8 9 11 13 17 20 22 20 19 19 19 20 20 20 21 23 23 23 23 23
6 4 5 7 4 4 4 6 6 5 4 5 10 10 9 9 10 10 11 17 21 19 15 12 10 7 5 6 7 7 8 11 14 17 20 23 23 21 20 20 19 20 22 23 23 24 24 24 25
6 4 3 5 1 3 4 7 8 3 3 6 9 9 10 10 10 11 10 19 23 22 17 14 10 7 6 6 5 7 9 12 15 18 20 22 22 19 20 22 23 24 23 23 23 25 25 25 26
2 1 2 2 2 4 4 5 6 7 9 8 9 10 9 9 9 9 9 18 24 21 17 13 10 8 6 5 4 7 9 11 14 17 20 21 19 21 22 22 22 23 24 23 24 25 25 26 28
2 2 1 2 4 5 2 6 6 7 13 14 11 9 10 10 11 10 8 20 24 20 17 14 11 9 7 4 3 5 8 10 13 16 19 20 20 21 22 22 22 23 24 25 25 26 28 28 29
4 6 6 4 6 4 3 7 2 5 10 13 10 9 7 7 8 8 8 19 21 20 18 17 13 11 8 4 2 4 7 10 13 16 17 18 19 19 20 21 22 23 23 23 24 26 26 28 29

GFSSGP_925_spd_297.txt.gz
Wind_Speed
6 4 3 3 2 3 4 7 3 6 3 1 2 3 5 3 3 4 5 10 11 15 14 15 14 14 13 12 12 11 10 10 9 8 8 7 7 7 7 7 6 5 5 5 4 3 7 10 9
4 2 2 2 3 2 5 4 6 8 5 8 6 3 4 2 1 4 5 12 16 15 15 15 14 13 13 12 12 11 10 9 8 7 6 6 5 4 4 3 3 2 2 2 2 1 3 7 10
3 3 3 4 4 6 5 5 7 3 5 4 3 4 3 5 1 6 11 19 18 17 16 15 15 13 12 12 11 11 10 9 8 6 5 4 4 3 2 1 1 1 2 2 3 4 4 5 8
6 3 3 2 9 5 6 4 1 6 2 5 5 5 1 2 7 8 18 21 21 17 15 14 14 13 12 11 10 9 8 7 6 6 5 4 3 3 3 3 4 5 5 6 6 7 7 8 9
3 2 2 4 7 5 5 6 2 6 4 3 4 5 2 2 7 19 18 18 19 19 16 15 12 12 11 11 9 9 8 7 6 6 5 4 4 4 4 5 6 6 6 7 8 9 10 12 12
3 3 2 12 6 4 6 8 3 6 7 1 5 7 3 6 18 18 18 17 16 18 16 15 13 11 11 10 9 8 7 6 5 5 4 5 4 4 4 5 6 6 7 8 10 10 11 13 15
5 4 5 3 5 6 9 5 5 8 8 6 10 5 1 5 17 19 18 17 16 15 15 13 13 11 11 11 10 9 8 6 5 4 3 3 2 1 1 2 4 6 8 9 10 13 13 15 17
4 4 4 6 6 7 4 2 2 8 7 4 5 7 5 6 20 20 19 19 18 16 15 15 13 12 12 11 10 10 9 9 9 8 8 7 7 7 8 7 7 7 6 6 9 11 12 15 16
3 1 8 9 8 6 5 3 1 1 4 3 1 6 4 28 26 24 22 19 18 17 16 15 14 13 12 12 11 10 9 9 9 9 8 7 7 6 6 7 8 8 10 11 11 11 11 14 16
4 6 9 4 5 4 2 1 3 1 2 1 1 1 16 31 29 23 19 19 21 20 17 15 14 13 11 10 9 9 8 8 7 6 5 4 5 6 8 9 10 12 13 15 15 16 16 16 16
5 9 7 3 4 3 2 2 2 2 4 5 7 6 11 18 17 18 21 25 26 22 19 16 15 13 11 10 9 8 7 6 4 2 4 5 7 9 11 13 14 16 17 19 19 20 19 19 19
3 7 4 7 3 2 3 2 3 4 4 5 7 8 12 13 14 18 22 26 25 23 20 17 16 14 12 11 9 8 5 4 1 3 6 8 11 13 15 16 17 18 19 20 20 21 23 22 22
5 4 5 7 7 5 1 6 5 6 6 1 2 4 10 14 14 18 26 27 25 25 22 20 18 15 14 12 10 7 4 2 2 4 7 10 12 14 16 17 18 19 20 21 23 24 25 25 25
3 6 11 5 5 4 5 5 5 6 6 7 6 10 10 9 12 13 22 26 28 27 25 21 19 16 14 12 9 7 4 3 3 6 8 10 12 14 16 19 20 20 20 21 22 24 25 27 27
3 4 4 5 5 7 4 9 14 7 6 10 11 10 10 12 16 18 29 29 34 30 26 23 20 17 15 12 9 7 5 4 4 6 8 10 13 15 16 17 18 19 19 21 22 23 24 25 26
2 2 3 3 8 4 9 23 3 8 8 13 11 11 11 13 12 25 25 27 32 32 29 25 22 19 15 12 10 7 5 4 5 7 10 12 13 14 16 17 17 18 19 20 20 21 22 23 25
3 4 6 6 8 4 6 11 4 2 7 10 10 10 9 9 8 21 22 29 33 33 31 27 23 19 16 12 9 7 5 4 5 8 10 12 13 13 15 16 17 18 20 20 20 22 22 25 27
5 3 3 5 2 2 4 19 8 7 4 8 8 9 9 10 14 20 23 26 30 33 32 29 25 20 16 12 9 7 5 4 6 8 10 12 13 14 16 17 18 19 21 22 22 22 23 23 24
2 3 3 3 3 4 8 19 14 10 6 10 9 8 9 14 7 18 25 27 28 31 33 30 26 20 16 13 9 8 6 5 5 9 9 12 14 15 18 18 19 19 19 20 19 20 22 21 22
6 3 5 6 3 5 6 14 13 10 12 14 15 11 13 6 7 9 21 26 30 35 34 29 25 21 16 13 9 5 4 4 8 9 11 12 14 15 17 17 18 18 19 19 17 16 18 16 10
8 10 6 7 3 4 5 10 7 8 12 8 10 11 11 17 14 10 13 25 33 37 36 31 25 21 16 12 9 5 3 4 6 8 12 12 14 15 16 16 17 18 17 17 17 14 14 13 11
4 7 11 7 2 4 1 6 5 5 9 7 12 12 14 14 13 13 14 19 30 36 35 29 25 21 16 13 9 6 3 2 5 11 13 13 14 15 16 15 15 15 15 15 14 11 13 14 14
7 1 5 3 3 2 3 2 7 2 7 10 11 11 13 16 17 18 18 27 31 37 34 29 24 20 16 12 9 6 3 3 7 9 11 12 14 15 15 15 15 15 15 14 14 14 13 12 13
4 5 5 3 2 2 8 8 7 5 10 7 2 7 11 12 15 16 23 25 27 34 31 29 25 20 17 13 9 6 4 4 6 8 11 13 16 17 17 15 14 14 15 15 15 15 16 16 16
1 4 2 4 3 6 1 4 12 7 9 6 5 6 8 9 14 16 15 15 23 32 33 30 26 22 19 14 10 7 5 5 5 7 10 14 18 19 18 14 15 16 16 15 16 17 18 17 18
6 7 4 7 4 4 2 7 7 7 9 8 8 5 7 9 12 16 17 20 26 30 34 31 27 23 19 15 11 8 6 5 5 6 9 11 14 16 14 15 14 14 14 15 15 16 18 17 18
5 4 4 3 2 2 4 7 10 8 10 7 7 6 9 10 11 14 13 20 24 28 35 34 29 23 20 16 13 10 8 7 6 6 8 10 12 12 11 12 13 14 14 14 15 16 18 18 20
2 2 3 3 3 5 5 6 6 6 8 5 6 8 8 7 9 10 12 19 24 30 34 32 28 26 21 17 14 11 9 7 5 5 6 8 9 10 11 12 13 14 14 15 16 18 19 19 21
2 1 2 5 4 4 2 6 7 10 6 7 8 8 8 8 10 11 11 18 23 29 33 32 27 24 21 18 15 13 11 8 6 5 5 6 7 9 10 12 13 13 14 14 15 17 19 21 23
4 8 8 5 6 4 3 11 3 3 6 5 7 7 6 7 8 8 9 16 22 27 32 32 28 25 22 19 16 14 12 9 8 5 3 4 5 7 9 11 11 12 13 14 15 18 19 20 21